Location: Betz
(49.1556°N, 2.9558°E)
Time: 02:45:09
(UTC+00:00)

ATLAS 2AS CENTAUR R/B - Pass Details

Date: 18 September 2019
Orbit: 919 x 1292 km, 63.6° (Epoch: 21 September)

Event Time Altitude Azimuth Distance (km) Brightness Sun altitude
Rises 18:39:56 0° 317° (NW) 4,231 6.8 -8.0°
Reaches altitude 10° 18:42:49 10° 318° (NW) 3,228 6.1 -8.5°
Maximum altitude 18:50:38 85° 231° (SW) 1,189 3.0 -9.7°
Drops below altitude 10° 18:57:45 10° 144° (SE) 2,956 4.6 -10.8°
Enters shadow 18:58:54 - 144° (SE) 3,367 4.8 -11.0°
